Regional Weather Roundup
Issued by NWS

Home | Current Version | Previous Version | Graphics & Text | Print | Product List | Glossary On
Versions: 1 2 3 4 5 6 7 8 9 10 11 12 13 14 15 16 17 18 19 20 21 22 23 24 25 26 27 28 29 30 31 32 33 34 35 36 37 38 39 40 41 42 43 44 45 46 47 48 49 50
000
ASUS45 KBOU 210707
RWRCO

WEATHER ROUNDUP FOR COLORADO
NATIONAL WEATHER SERVICE DENVER/BOULDER CO
100 AM MDT FRI JUL 21 2017

NOTE: "FAIR" INDICATES FEW OR NO CLOUDS BELOW 12000 FEET WITH NO
SIGNIFICANT WEATHER AND/OR OBSTRUCTIONS TO VISIBILITY.

COZ001>005-013-030-031-210800-
...NORTHWEST COLORADO...

CITY           SKY/WX    TMP DP  RH WIND       PRES   REMARKS
CRAIG          MOCLDY    66  47  50 W7        30.22R
HAYDEN         FAIR      64  45  48 E8        30.25R
MEEKER         FAIR      61  56  83 N5        30.25S
RABBIT EARS PA FAIR      54  41  62 SW7       30.55S
STEAMBOAT SPGS FAIR      64  47  52 E5        30.26F
WALDEN         FAIR      57  45  62 CALM      30.38R
$$

COZ006>008-011-210800-
...WEST CENTRAL VALLEYS...

CITY           SKY/WX    TMP DP  RH WIND       PRES   REMARKS
GRAND JUNCTION FAIR      74  54  49 E5        30.12F
MONTROSE       FAIR      70  51  51 E8        30.23F
EAGLE          FAIR      62  51  67 E6        30.30S
RIFLE          FAIR      68  56  65 S3        30.19F
DELTA          FAIR      73  53  49 CALM      30.18S
NUCLA          FAIR      66  52  59 E5        30.27F
$$

COZ017>023-064>068-210800-
...SOUTHWEST COLORADO...

CITY           SKY/WX    TMP DP  RH WIND       PRES   REMARKS
DURANGO        FAIR      62  51  67 CALM      30.29S
CORTEZ         MOCLDY    64  60  87 CALM      30.26S
PAGOSA SPRINGS MOCLDY    60  50  71 CALM      30.38S
TELLURIDE      FAIR      56  50  80 SE9       30.49F
WOLF CREEK PAS FAIR      46  37  71 S10       30.72S
$$

COZ009-010-012-014-032>034-037-058>063-210800-
...CENTRAL COLORADO...

CITY           SKY/WX    TMP DP  RH WIND       PRES   REMARKS
ASPEN          MOCLDY    55  50  83 VRB5      30.37R
BUENA VISTA    FAIR      59  50  73 W7        30.37F
COPPER MTN     FAIR      55  37  50 S7        30.69S
BERTHOUD PASS  FAIR      46  32  57 W17       30.72R
COTTONWOOD PAS FAIR      61  41  48 W9G20     30.51F
GUNNISON       FAIR      59  49  69 N7        30.36F
KREMMLING      FAIR      59  54  82 CALM      30.35S
LEADVILLE      FAIR      44  40  85 CALM      30.52S
MONARCH PASS   FAIR      48  41  76 W20       30.78F
SALIDA         FAIR      63  54  74 W6        30.42S
SUNLIGHT       FAIR      50  41  71 SW8       30.61F
WILKERSON PASS FAIR      52  39  62 S6        30.65F
$$

COZ069>075-210800-
...SAN LUIS VALLEY/SANGRE DE CRISTO MOUNTAINS...

CITY           SKY/WX    TMP DP  RH WIND       PRES   REMARKS
ALAMOSA        CLOUDY    63  51  65 N6        30.34S
DEL NORTE      FAIR      60  49  67 SW9       30.38S
LA VETA PASS   NOT AVBL
SAGUACHE         N/A    N/A N/A N/A MISG        N/A
$$

COZ035-036-038>040-210800-
...NORTHERN COLORADO FRONT RANGE...

CITY           SKY/WX    TMP DP  RH WIND       PRES   REMARKS
DENVER INTL AP MOCLDY    73  51  46 SW16      30.11S
DMNS CITY PARK   N/A     71  51  49 SW3       30.11S
AURORA         MOCLDY    70  53  55 SW12      30.13F
FRONT RANGE AP FAIR      73  52  46 SW14G21   30.13S
ERIE MUNI ARPT FAIR      74  48  40 S5        30.09S
BOULDER MUN AP FAIR      77  46  33 CALM      30.10R
CENTENNIAL     FAIR      73  50  44 W9        30.14F
BROOMFIELD     FAIR      72  48  43 CALM      30.14S
FORT COLLINS   FAIR      72  54  53 N5        30.09R
LONGMONT       FAIR      74  55  50 NW8       30.10S
$$

COZ041-046-047-076>085-087-088-210800-
...PIKES PEAK/PALMER DIVIDE AND SOUTHERN FOOTHILLS...

CITY           SKY/WX    TMP DP  RH WIND       PRES   REMARKS
COLO. SPRINGS  MOCLDY    72  52  49 N9        30.19F
A. F. ACADEMY  FAIR      67  50  53 NE12      30.21F
SCHRIEVER AFB  FAIR      72  46  39 NW12G20   30.19F
CHEYENNE MTN   FAIR      75  44  33 W8        30.20F
ELLICOTT       FAIR     N/A N/A N/A N10       30.16F
FALCON           N/A     70  44  37 NW12G17   30.25F
FORT CARSON    FAIR      71  52  51 NW10      30.15F
LIMON          FAIR      65  58  78 NW8       30.12S
MONUMENT HILL  FAIR      63  46  55 W7        30.28F
CANON CITY     CLEAR     73  55  53 W10       30.13F
WALSENBURG     FAIR      70  48  46 CALM      30.18F
TRINIDAD       FAIR      78  45  30 NW9       30.16R
$$

COZ042>045-048>051-090-091-210800-
...NORTHEAST COLORADO...

CITY           SKY/WX    TMP DP  RH WIND       PRES   REMARKS
GREELEY ARPT   FAIR      73  58  59 N7        30.07R
AKRON          FAIR      77  52  41 SW14      30.04R
BURLINGTON     FAIR      72  64  76 W3        30.02F
WRAY           NOT AVBL
YUMA           FAIR      75  55  50 W6        30.00S
STERLING       FAIR      72  64  78 SE7       29.98R
HOLYOKE        FAIR      73  66  78 W7        29.96R
FORT MORGAN    FAIR      73  53  50 SW6       30.05R
$$

COZ086-089-092>099-210800-
...SOUTHEAST COLORADO...

CITY           SKY/WX    TMP DP  RH WIND       PRES   REMARKS
PUEBLO         FAIR      75  52  44 W9        30.06F
LA JUNTA       FAIR      76  52  43 SW12      30.00F
LAMAR          FAIR      78  52  40 S16       29.96S
SPRINGFIELD      N/A     74  52  46 S17       30.06S
$$



USA.gov is the U.S. government's official web portal to all federal, state and local government web resources and services.